Probability
0 0 1 2 2 1 0 0 0 0 0 0 0 0 0 0 0 0 0 0 0 0 0 1 1 1 0 0 0 0 2 4 5 5 5 5 4 3 3 3 3 3 3 1 0 0 1 1 1
0 0 1 1 1 0 0 0 0 0 0 0 0 0 0 0 0 0 0 0 0 0 0 0 0 0 0 0 0 0 2 3 3 4 4 4 3 3 3 3 3 3 3 2 1 1 1 1 1
0 0 0 0 0 0 0 0 0 0 0 0 0 0 0 0 0 0 0 1 1 1 0 0 0 0 0 0 0 0 1 1 2 3 3 2 1 1 2 2 2 3 3 3 3 3 3 2 2
0 0 0 0 0 0 0 0 0 0 0 0 0 0 0 0 0 0 0 1 2 2 1 0 0 0 0 0 0 0 0 0 2 2 2 1 1 0 1 1 1 1 2 3 3 2 2 1 1
0 0 0 0 0 0 0 0 0 0 0 0 0 0 0 0 0 0 0 1 2 2 1 0 0 0 0 0 0 0 0 0 1 1 1 0 0 0 0 0 0 0 2 2 2 1 0 0 0
0 0 0 0 0 0 0 0 0 0 0 0 0 0 1 1 1 0 0 0 1 1 0 0 0 0 0 0 0 0 0 0 0 0 0 0 0 0 0 0 0 0 1 2 1 0 0 0 0
0 0 0 0 0 0 0 0 0 0 0 0 0 1 2 4 3 1 1 0 0 0 0 0 0 0 0 0 0 0 0 0 0 0 0 0 0 0 0 0 0 0 1 1 1 0 0 0 1
0 0 0 0 0 0 0 0 0 0 0 0 0 1 3 4 4 4 4 3 1 1 1 1 1 1 0 0 0 0 1 1 1 1 1 0 0 0 0 0 0 0 0 0 0 0 0 1 2
0 0 0 0 0 0 0 0 0 0 0 0 0 1 3 4 6 8 9 7 5 4 4 4 3 2 1 1 0 0 1 2 2 2 1 0 0 0 0 1 1 0 0 0 0 1 1 1 2
0 0 0 0 0 0 0 0 0 0 0 0 0 1 3 6 7 10 11 10 8 6 6 5 4 3 3 2 1 0 1 1 1 1 0 1 1 0 0 2 3 1 0 0 0 1 1 0 1
0 0 0 0 0 0 0 0 0 1 1 1 0 2 5 7 7 8 10 10 9 8 7 6 4 3 3 2 1 1 1 1 0 0 1 2 3 2 2 2 3 2 1 0 0 0 0 0 0
0 0 0 0 0 0 0 1 1 2 2 1 2 5 8 8 6 6 8 10 10 9 8 6 5 4 4 3 2 2 3 2 1 0 2 3 4 4 4 4 3 2 1 0 0 0 0 0 1
0 0 0 0 0 0 1 2 3 3 3 3 4 6 8 8 7 7 9 12 12 10 9 7 5 5 7 7 5 3 3 3 2 2 2 3 4 4 5 5 4 2 1 1 1 1 1 1 2
0 0 0 0 0 0 1 2 3 4 4 4 5 5 5 6 7 9 12 14 14 11 9 8 6 6 9 9 7 5 5 5 5 4 4 5 5 5 5 5 3 1 1 2 3 4 5 4 4
0 0 0 0 0 0 0 1 3 4 4 4 5 6 6 6 8 9 11 14 13 10 8 8 6 6 9 10 9 7 6 7 7 6 6 6 7 7 6 4 2 1 3 6 7 8 8 7 6
0 0 0 0 0 0 0 1 2 3 3 3 4 7 8 8 8 8 10 12 12 11 11 9 6 6 8 9 8 7 6 6 7 6 5 5 5 5 5 4 3 2 4 8 10 10 9 7 7
0 0 0 0 0 0 0 1 3 4 3 2 3 8 10 9 8 8 10 12 12 13 14 13 9 8 9 9 8 7 6 6 6 6 5 4 2 1 3 5 5 3 4 7 9 10 8 6 5
0 0 0 0 0 0 0 1 2 4 4 2 2 6 9 10 9 11 14 14 14 16 18 17 14 13 12 10 8 8 8 7 6 5 5 4 2 2 4 5 5 4 4 6 7 8 7 5 4
0 0 0 0 0 0 0 0 1 3 4 3 2 3 7 9 11 14 18 18 17 18 20 22 20 16 13 12 11 11 11 10 8 7 7 6 5 5 6 6 6 6 6 6 5 6 6 5 5
0 0 0 0 0 0 0 0 0 1 3 3 2 2 5 8 12 16 19 18 18 19 21 23 24 21 17 15 15 15 15 12 11 11 12 10 8 8 9 9 9 9 8 6 4 4 4 4 5
0 0 0 0 0 0 0 0 0 0 2 3 4 4 6 9 12 14 15 16 17 18 21 24 26 28 26 24 21 20 18 16 15 15 15 13 10 10 11 11 11 10 8 7 5 4 3 4 4
0 0 0 0 0 0 0 0 0 1 2 4 6 7 7 9 12 13 13 14 14 14 18 25 31 34 35 33 30 26 22 20 20 20 17 13 11 10 11 12 12 11 9 8 6 5 4 5 4
0 0 0 0 0 0 0 0 0 1 3 5 7 7 8 9 11 13 13 12 12 13 17 25 34 38 39 39 38 33 27 25 25 23 19 14 12 11 11 11 12 12 10 9 8 6 6 7 6
0 0 0 0 0 0 0 0 0 1 3 4 6 7 8 8 10 11 10 10 12 14 17 24 33 37 39 41 41 37 32 30 28 24 18 14 12 12 11 11 11 11 10 10 10 8 8 9 9
0 0 0 0 0 0 0 0 1 2 3 3 5 6 7 8 9 8 8 10 13 14 16 21 30 36 38 39 39 37 34 31 28 22 16 12 10 10 10 11 10 9 8 9 10 9 10 11 11
0 0 0 0 0 0 0 0 1 3 3 3 4 5 6 8 10 9 10 13 14 14 14 19 28 35 37 36 34 32 31 28 25 20 15 12 10 9 9 10 10 7 5 5 7 9 10 10 10
0 0 0 0 0 0 0 1 2 3 3 3 3 4 6 9 10 10 11 14 15 14 14 17 24 30 33 31 28 25 24 23 20 18 15 13 12 11 11 10 8 6 3 3 4 6 9 9 9
1 0 0 0 0 0 0 2 3 3 3 3 4 5 6 9 12 13 13 14 14 14 14 15 19 23 26 25 22 19 19 18 16 14 13 12 12 11 11 9 8 5 3 2 4 6 7 9 9
1 1 0 0 0 0 0 1 3 4 4 3 3 4 7 11 14 16 17 17 16 14 13 14 17 20 21 20 18 16 16 15 15 13 11 11 11 9 8 7 6 5 4 4 5 5 7 8 9
1 1 1 1 0 0 0 1 3 5 5 4 3 4 8 12 16 19 20 21 19 14 12 14 18 20 19 17 17 16 14 14 15 14 12 12 11 8 5 5 5 6 5 5 6 6 6 7 8
Wind_Speed
8 8 7 6 7 2 8 8 6 6 5 6 5 4 6 7 7 8 7 8 8 9 9 9 6 5 4 4 5 5 5 6 6 6 5 5 5 5 5 5 5 5 6 6 6 6 6 6 5
6 6 7 7 3 5 8 7 7 7 6 5 4 4 4 7 8 8 8 8 9 9 8 7 7 5 5 5 5 5 5 6 6 6 5 5 5 5 5 6 6 5 5 6 6 6 6 6 5
6 7 7 4 2 5 8 7 7 6 4 2 3 4 5 7 6 6 8 10 9 8 7 9 7 5 5 5 5 5 5 5 5 5 5 5 5 5 5 5 5 5 5 5 5 5 5 5 5
6 7 6 2 6 7 6 6 5 4 4 3 3 6 7 6 5 7 10 10 9 8 8 10 6 5 5 4 5 5 5 5 5 5 5 5 5 5 5 5 4 5 5 5 5 5 5 5 5
7 6 4 3 6 6 5 4 2 2 3 4 3 6 8 7 7 10 10 9 9 8 7 10 7 5 5 4 4 4 5 5 5 5 5 5 5 4 4 4 4 4 4 4 5 4 4 5 5
6 5 3 4 6 5 5 3 1 2 4 5 4 6 8 7 8 10 10 9 8 7 7 9 9 6 5 4 4 4 4 4 4 4 4 4 4 4 4 4 3 3 3 3 4 5 5 5 5
6 4 1 3 5 5 5 2 1 2 3 4 3 6 8 8 8 9 9 8 8 7 7 7 7 7 6 5 4 3 4 4 4 4 3 3 3 3 3 3 3 3 3 3 3 4 5 5 4
6 5 3 3 3 5 5 2 2 1 3 5 3 3 7 10 10 9 9 8 8 7 6 6 6 6 5 6 6 4 4 3 3 3 2 0 1 2 2 2 3 3 3 3 3 3 3 3 3
6 6 3 2 2 4 4 2 2 2 4 4 3 4 9 14 12 10 9 8 8 6 5 5 5 4 3 4 6 5 5 4 3 3 2 2 1 1 3 4 4 2 2 2 1 1 1 1 3
6 4 2 3 2 2 1 1 2 4 5 5 6 7 11 13 12 11 10 9 8 7 6 5 4 4 3 2 4 2 3 3 2 1 1 1 1 1 2 6 3 1 0 1 1 1 2 3 1
4 2 2 1 1 2 1 1 2 3 3 3 5 10 12 13 12 11 9 8 8 7 6 5 4 3 3 2 2 1 1 1 1 1 1 1 1 0 1 0 3 2 2 1 2 2 1 1 1
4 1 2 1 1 2 2 1 2 2 1 1 3 10 13 13 12 10 9 8 8 7 7 5 5 4 3 1 1 1 1 1 0 1 1 0 1 1 1 1 1 1 0 1 1 1 2 2 2
5 3 2 2 3 3 3 3 2 2 2 1 5 10 11 11 10 9 8 7 7 7 6 6 5 4 3 2 2 1 1 1 0 0 0 2 1 1 1 1 2 2 1 1 1 2 2 2 1
2 2 3 3 3 4 4 3 3 2 2 4 7 9 10 10 9 9 8 7 7 6 6 5 5 5 4 3 2 2 1 1 1 0 0 1 2 1 2 1 1 2 2 2 2 2 1 1 2
4 5 5 4 4 3 4 5 4 2 4 5 7 8 8 8 8 8 8 8 8 7 6 5 6 5 5 4 3 2 1 1 1 0 1 1 2 1 2 1 1 1 2 1 1 1 1 1 1
7 9 7 5 3 4 8 5 3 3 5 5 6 6 7 7 7 7 7 7 7 6 6 5 4 5 5 4 2 2 1 1 0 0 0 0 1 1 2 1 1 2 2 1 1 1 1 1 1
10 9 7 6 3 4 7 4 3 2 4 5 6 6 6 6 6 6 6 6 6 6 6 6 5 5 5 4 3 2 1 1 1 0 1 1 1 1 2 1 2 2 1 1 2 1 2 1 1
8 7 6 5 4 4 6 4 2 2 4 5 5 6 6 6 6 5 6 6 6 6 6 6 6 5 5 4 3 2 2 1 1 0 0 1 1 1 2 0 1 2 1 1 1 1 1 2 2
5 6 5 3 2 4 5 5 4 3 4 5 5 6 6 6 5 5 5 5 6 6 6 6 6 5 4 3 3 2 2 1 1 1 0 0 1 1 1 2 0 1 1 2 2 2 1 1 1
9 9 6 4 3 4 4 5 4 3 4 4 5 5 6 6 6 5 5 5 6 6 6 7 6 5 5 4 3 2 1 1 1 1 1 0 1 2 1 1 1 0 0 1 1 2 2 1 1
10 10 7 4 4 6 6 8 7 5 4 4 5 5 6 6 6 6 6 6 6 6 6 5 6 6 6 5 4 3 2 1 1 1 1 0 1 1 1 1 1 1 1 0 1 2 2 2 1
10 7 7 7 8 6 7 7 6 6 6 5 5 5 5 6 6 6 6 6 6 6 7 6 7 7 6 6 5 4 3 2 1 1 1 1 0 1 1 1 1 1 1 1 2 1 2 3 2
7 3 7 8 9 8 8 9 5 6 6 5 4 4 4 4 5 5 6 6 6 6 6 6 6 6 6 6 6 5 3 2 1 1 1 1 1 0 1 1 1 1 1 1 2 1 3 2 3
5 6 6 8 10 11 8 9 6 4 4 3 3 3 3 4 4 4 5 5 6 6 6 6 7 6 6 6 5 5 4 3 2 2 1 1 0 0 0 0 0 1 1 1 2 2 2 2 3
10 9 8 10 10 8 6 8 4 0 1 2 2 3 4 4 4 4 5 5 6 6 6 7 7 6 5 5 5 4 4 4 4 3 2 1 1 0 0 1 1 1 1 1 1 1 2 1 2
12 13 9 7 7 6 7 7 2 2 0 1 2 3 4 4 4 4 5 5 6 6 7 7 7 6 6 5 4 4 4 3 2 2 1 1 1 1 1 1 1 1 1 1 1 1 1 1 2
11 11 10 9 9 8 6 5 4 4 3 2 2 3 4 4 4 4 4 4 5 6 6 7 7 6 6 5 4 3 3 2 1 2 2 1 1 1 0 0 1 1 1 1 2 1 1 1 1
9 8 7 10 8 10 8 9 5 4 3 3 3 4 4 4 4 4 4 4 4 5 6 6 6 6 5 5 4 3 3 2 2 1 1 1 1 1 0 0 0 1 0 1 2 1 1 1 1
10 10 9 9 9 9 8 4 1 2 2 2 3 3 4 4 4 5 4 4 5 5 5 5 5 5 4 4 3 3 3 2 2 2 2 2 1 1 1 1 1 0 0 0 1 2 1 1 1
10 10 10 9 9 9 10 4 3 1 0 1 2 2 4 4 4 5 5 5 5 5 5 4 4 4 4 3 3 3 2 2 1 1 2 2 2 2 1 1 1 1 1 1 1 2 1 1 1
Wind_Direction
194 204 228 239 233 127 75 72 63 71 75 63 64 50 44 34 24 61 97 123 123 128 127 135 121 116 108 104 106 100 96 101 102 99 99 97 92 86 84 81 80 73 70 72 71 73 70 69 74
205 216 234 242 252 99 81 69 66 62 75 97 102 80 73 69 56 90 119 127 133 130 133 129 119 121 112 106 107 103 99 100 103 101 96 92 88 83 80 77 75 71 68 69 70 70 66 64 67
215 239 260 251 58 65 83 76 76 84 99 114 103 69 51 69 85 102 114 136 137 133 136 120 126 122 115 109 110 108 104 101 101 101 96 91 85 79 77 75 73 69 69 69 67 64 62 60 64
234 228 236 236 92 69 69 82 86 109 119 110 115 101 86 67 80 102 125 139 139 139 139 121 133 127 119 112 109 108 105 102 99 95 90 88 82 79 79 76 74 74 72 68 62 59 55 53 58
243 252 219 138 96 86 78 78 90 95 99 109 119 104 100 93 96 116 133 141 141 139 136 126 133 131 125 117 113 111 106 102 96 91 86 84 80 75 73 72 76 75 74 70 61 55 51 54 54
241 242 220 137 110 102 97 94 102 96 107 118 129 118 100 113 128 131 138 143 143 142 137 127 139 138 134 127 119 112 107 101 96 91 85 81 79 74 71 67 71 71 68 64 61 58 54 55 53
270 257 219 127 124 119 96 99 89 80 114 115 127 117 117 136 134 139 140 142 143 143 140 140 146 147 151 141 129 118 109 102 96 89 80 80 86 82 71 70 57 56 56 56 69 62 55 59 61
284 257 191 149 138 108 103 109 76 54 92 106 153 130 132 140 144 144 142 145 143 145 147 145 146 146 158 148 137 130 121 114 116 109 90 111 175 144 119 109 70 50 46 55 67 60 58 69 84
258 246 180 139 125 106 114 136 105 122 133 135 121 73 110 136 150 152 150 149 146 149 154 153 149 148 161 145 132 158 159 146 174 155 156 230 215 138 146 85 75 49 40 44 41 39 54 177 149
248 244 108 60 24 65 112 158 152 176 165 153 135 112 128 148 160 163 162 160 159 161 165 160 162 156 164 148 143 182 177 150 200 127 175 226 51 16 25 106 113 95 43 157 156 241 222 244 175
244 272 80 105 14 335 268 218 202 215 175 157 160 151 154 163 171 175 173 167 164 163 166 172 167 167 176 163 161 177 193 154 189 129 301 354 329 42 331 132 156 174 201 224 153 200 260 336 360
235 245 285 304 320 272 277 263 221 245 313 43 167 159 163 174 180 182 179 171 167 167 170 175 172 172 188 191 180 196 194 167 199 126 281 315 314 339 349 325 339 320 350 343 327 333 12 347 345
221 222 237 256 257 268 256 247 250 250 258 197 159 161 171 179 182 181 179 173 169 172 174 174 180 174 182 199 242 215 242 255 166 282 143 310 297 315 331 332 329 321 336 317 319 341 353 330 329
227 240 244 242 233 226 233 231 228 235 198 172 165 172 178 181 183 176 177 178 179 178 182 176 186 177 185 195 218 235 243 235 268 267 60 301 313 339 321 307 323 332 340 347 333 340 334 324 339
221 229 224 213 218 205 225 216 213 201 181 183 176 177 177 179 181 183 181 183 183 182 180 183 186 180 193 206 216 226 248 250 268 88 71 328 319 342 311 312 316 335 329 319 304 318 328 311 315
217 226 220 171 198 199 237 214 147 170 192 195 187 176 177 178 180 181 182 187 186 186 177 182 186 182 188 201 216 239 267 268 261 10 53 351 337 332 305 318 333 330 308 314 313 307 336 345 341
211 222 218 171 162 212 238 233 143 189 207 204 193 183 180 178 182 177 181 182 183 181 180 181 186 185 189 194 204 218 206 230 268 281 327 353 329 332 306 326 346 310 310 322 315 10 333 340 337
212 220 215 208 160 227 234 238 208 205 218 211 199 191 187 189 187 177 180 180 178 178 180 183 182 183 190 193 191 204 202 196 203 206 336 319 335 334 305 299 340 308 311 322 347 347 332 318 322
250 240 232 213 203 245 235 243 233 209 213 213 206 199 196 194 179 173 177 176 175 174 176 179 182 180 189 189 195 194 190 198 185 188 113 302 319 313 298 311 44 304 321 332 339 321 303 302 307
235 237 228 201 174 250 246 250 231 220 221 220 221 213 206 197 178 176 182 179 178 173 173 178 182 176 186 180 185 187 205 199 181 195 109 311 300 291 268 295 271 252 310 337 333 317 310 316 315
229 240 243 233 208 218 244 230 213 203 210 216 221 225 219 210 195 185 187 187 180 174 176 182 184 179 184 181 176 167 169 190 175 166 143 271 310 299 320 318 300 308 285 315 301 303 293 306 303
228 230 244 236 236 220 236 252 205 207 211 211 210 212 214 200 195 190 186 186 186 181 176 179 175 176 177 180 177 179 185 187 194 199 139 145 333 321 312 305 307 300 294 306 283 290 286 281 284
243 229 239 241 242 249 227 254 222 198 223 217 205 207 212 196 190 187 186 181 181 181 173 166 166 170 172 177 177 188 196 192 172 169 123 197 129 318 315 308 289 272 280 297 303 305 284 279 290
213 209 219 232 236 237 234 251 244 204 232 235 205 197 203 191 179 177 174 172 171 171 166 159 158 159 164 175 177 183 180 179 169 167 160 188 136 35 12 328 291 278 292 275 271 276 264 292 303
211 221 216 213 218 230 203 239 252 316 295 268 227 194 192 187 170 163 162 166 165 166 167 162 156 157 163 169 173 177 186 190 187 194 166 208 249 251 15 319 285 291 291 282 284 265 291 277 279
211 230 242 245 237 221 189 233 212 99 40 250 228 184 175 180 170 165 159 156 159 162 163 163 158 159 163 167 172 177 191 199 182 185 203 200 260 313 341 266 259 275 279 281 278 267 265 269 268
213 226 249 263 264 260 226 210 207 188 203 202 186 171 176 173 170 167 157 155 155 155 156 161 159 160 163 162 164 173 182 195 193 194 211 223 248 234 181 276 276 275 284 296 282 306 306 291 275
238 226 230 242 250 252 240 233 226 192 209 205 200 181 177 169 164 160 160 156 155 152 151 156 160 163 165 168 177 162 159 181 202 207 187 229 223 230 198 196 258 272 286 290 281 277 301 271 268
207 213 229 242 253 261 257 235 102 197 226 228 214 184 173 171 170 164 161 155 151 146 151 160 160 164 170 167 156 149 158 179 195 200 215 224 215 200 192 194 210 222 245 293 285 292 288 278 274
220 220 222 238 239 247 268 262 103 129 261 260 248 189 171 175 170 159 152 149 149 151 154 161 164 167 166 157 159 163 169 174 193 200 219 208 198 199 181 206 207 216 223 280 289 287 297 285 279